[[{"header":{"parameterUnit":"m.s-1","parameterCategory":1,"la1":30.2991,"la2":30.254,"lo1":-89.0895,"lo2":-89.0444,"dy":0.0017,"dx":0.0017,"nx":28,"ny":28,"refTime":"2026-02-26T09:00:00:Z","depth":0,"parameterNumber":2,"parameterNumberName":"U-component_of_WINDS"},"data":[0,0,0,0,0,0,0,0,0,0,0,0,0,0,0,0,0,0,0,0,0,0,0,0,0,0,0,0,0,0,0,0,0,0,0,0,0,0,0,0,0,0,0,0,0,0,0,0,0,0,0,0,0,0,0,0,0,0,-0.714,-0.714,0,-0.713,-0.713,-0.713,-0.7136,-0.7136,-0.7136,-0.7136,-0.7125,-0.7124,-0.7123,0,0,0,0,0,0,0,0,0,0,0,0,0,-0.716,-0.716,-0.714,-0.714,-0.714,-0.713,-0.713,-0.713,-0.7136,-0.7136,-0.7136,-0.7137,-0.7125,-0.7124,-0.7123,0,0,0,0,0,0,0,0,0,0,0,0,0,-0.7151,-0.7159,-0.714,-0.7141,-0.7141,-0.7131,-0.713,-0.713,-0.7136,-0.7136,-0.7136,-0.7137,-0.7125,-0.7124,-0.7123,-0.711,0,0,-0.7121,-0.712,0,0,0,0,0,0,0,0,-0.7151,-0.715,-0.7141,-0.7141,-0.7141,-0.7135,-0.7133,-0.7123,-0.7135,-0.7138,-0.7136,-0.7137,-0.7127,-0.7126,-0.7124,-0.7109,-0.7109,-0.7121,-0.712,-0.712,-0.7119,0,0,0,0,0,0,0,-0.7152,-0.7151,-0.7136,-0.7141,-0.7141,-0.7142,-0.7141,-0.7131,-0.713,-0.7137,-0.7138,-0.7137,-0.7127,-0.7124,-0.7123,-0.7109,-0.7121,-0.712,-0.7119,-0.7119,-0.7082,-0.7081,0,0,0,0,0,0,-0.7153,-0.7151,-0.7136,-0.7136,-0.7147,-0.7141,-0.714,-0.7136,-0.713,-0.713,-0.7136,-0.7137,-0.7126,-0.7124,-0.7123,-0.7106,-0.712,-0.7119,-0.7118,-0.7082,-0.7082,-0.7081,0,0,0,0,0,0,-0.7153,-0.7151,-0.7137,-0.7143,-0.7142,-0.714,-0.7136,-0.7136,-0.7133,-0.713,-0.7129,-0.7134,-0.7126,-0.7124,-0.7113,-0.7106,-0.7119,-0.7118,-0.7083,-0.7082,-0.7081,-0.7073,0,0,0,0,0,0,-0.7154,-0.7152,-0.7147,-0.7143,-0.7141,-0.7128,-0.7136,-0.7135,-0.7132,-0.7132,-0.7127,-0.7126,-0.7126,-0.7114,-0.7112,-0.7105,-0.7117,-0.7083,-0.7082,-0.7082,-0.7073,-0.7072,-0.707,0,0,0,0,0,-0.7155,-0.7145,-0.7147,-0.7145,-0.7136,-0.7127,-0.7126,-0.7126,-0.7131,-0.7126,-0.7124,-0.7127,-0.7107,-0.7113,-0.7111,-0.7103,-0.7084,-0.7083,-0.7082,-0.7074,-0.7072,-0.707,0,0,0,0,0,0,-0.7147,-0.7144,-0.7147,-0.7135,-0.7132,-0.7128,-0.7122,-0.7124,-0.7118,-0.7119,-0.7119,-0.7118,-0.7106,-0.7104,-0.711,-0.7089,-0.7096,-0.7095,-0.7091,-0.7089,-0.7087,-0.7088,-0.7116,0,0,0,0,0,-0.7144,-0.7138,-0.7136,-0.7126,-0.7124,-0.7123,-0.712,-0.712,-0.7116,-0.7114,-0.7111,-0.7106,-0.7099,-0.7094,-0.7087,-0.7074,-0.7072,-0.7067,-0.7065,-0.7064,-0.7062,-0.7053,-0.7051,-0.7078,-0.7078,-0.7078,0,0,-0.7137,-0.7135,-0.7131,-0.7124,-0.7121,-0.7114,-0.7122,-0.7114,-0.7108,-0.7113,-0.7102,-0.71,-0.7094,-0.7081,-0.7076,-0.7079,-0.7054,-0.7063,-0.7061,-0.706,-0.7052,-0.7049,-0.7047,-0.7077,-0.7077,-0.7077,0,0,-0.7122,-0.712,-0.7112,-0.7109,-0.7105,-0.7104,-0.7102,-0.7098,-0.7097,-0.7087,-0.7089,-0.7082,-0.707,-0.7066,-0.7062,-0.7045,-0.7047,-0.7043,-0.7033,-0.7025,-0.7023,-0.7021,-0.7013,-0.7011,-0.7041,-0.7041,-0.7041,0,-0.7114,-0.7104,-0.7107,-0.7099,-0.7095,-0.71,-0.709,-0.7087,-0.708,-0.7077,-0.7081,-0.7066,-0.7062,-0.7048,-0.7044,-0.7041,-0.7038,-0.7043,-0.7023,-0.7021,-0.7019,-0.7012,-0.7009,-0.7041,-0.7041,-0.7041,-0.7041,0,-0.7095,-0.7088,-0.7081,-0.7075,-0.7071,-0.7062,-0.7062,-0.7058,-0.7059,-0.7058,-0.7046,-0.7043,-0.7035,-0.7032,-0.7033,-0.7017,-0.7019,-0.7023,-0.703,-0.7016,-0.7009,-0.7007,-0.704,-0.704,-0.704,-0.704,0,0,-0.7073,-0.7069,-0.7066,-0.7063,-0.7059,-0.7053,-0.7045,-0.7038,-0.7033,-0.7028,-0.702,-0.701,-0.7013,-0.7009,-0.7009,-0.7002,-0.6987,-0.7007,-0.7007,-0.7002,-0.6968,-0.6964,-0.6961,-0.6989,-0.6989,-0.6988,-0.6968,0,-0.7056,-0.7042,-0.7043,-0.7029,-0.7022,-0.7026,-0.7018,-0.7014,-0.7013,-0.7006,-0.7005,-0.6997,-0.7003,-0.7,-0.6993,-0.6991,-0.698,-0.6992,-0.698,-0.6979,-0.698,-0.6958,-0.6954,-0.6935,-0.6966,-0.6966,-0.6965,0,-0.7035,-0.703,-0.7015,-0.7011,-0.7008,-0.7001,-0.6994,-0.6989,-0.6984,-0.6983,-0.6979,-0.698,-0.697,-0.6978,-0.6964,-0.6972,-0.6967,-0.6965,-0.6964,-0.6962,-0.697,-0.6953,-0.6929,-0.6926,-0.6961,-0.6962,-0.6962,0,-0.7019,-0.7008,-0.6998,-0.6995,-0.6991,-0.6986,-0.6984,-0.698,-0.6975,-0.6969,-0.6966,-0.6959,-0.6955,-0.6948,-0.6948,-0.6954,-0.6933,-0.6941,-0.6931,-0.693,-0.6925,-0.6925,-0.6898,-0.6924,-0.6924,-0.6924,-0.6924,0,-0.6999,-0.6989,-0.6991,-0.6984,-0.6973,-0.6975,-0.6963,-0.6962,-0.6958,-0.695,-0.6954,-0.6946,-0.6947,-0.6939,-0.6938,-0.6926,-0.6924,-0.6922,-0.6922,-0.6921,-0.6921,-0.6917,-0.6917,-0.6924,-0.6924,-0.6924,-0.6924,0,-0.6978,-0.6979,-0.6968,-0.6965,-0.6964,-0.6956,-0.6953,-0.6946,-0.6946,-0.6936,-0.6934,-0.6932,-0.6923,-0.6922,-0.6912,-0.6911,-0.6895,-0.6897,-0.6897,-0.6897,-0.6886,-0.6886,-0.6854,-0.6849,-0.688,-0.688,-0.6879,0,-0.6965,-0.6958,-0.6954,-0.695,-0.6948,-0.694,-0.6936,-0.6937,-0.6932,-0.6926,-0.692,-0.6911,-0.6904,-0.6889,-0.6887,-0.6878,-0.6879,-0.6868,-0.6877,-0.6876,-0.6877,-0.6876,-0.6875,-0.6866,-0.6865,-0.6865,-0.6865,0,-0.6941,-0.6941,-0.6935,-0.6929,-0.6924,-0.6919,-0.6914,-0.691,-0.6911,-0.6905,-0.6896,-0.6891,-0.688,-0.6871,-0.6863,-0.6859,-0.6861,-0.6862,-0.6859,-0.6857,-0.6857,-0.6855,-0.689,-0.6863,-0.6863,-0.6863,-0.6863,-0.6863,-0.6922,-0.6915,-0.6912,-0.6905,-0.6902,-0.6897,-0.689,-0.6889,-0.6882,-0.6874,-0.6875,-0.6865,-0.686,-0.6849,-0.6845,-0.6836,-0.684,-0.6836,-0.6834,-0.6833,-0.6831,-0.686,-0.6835,-0.6835,-0.6835,-0.6835,-0.6835,0,-0.6897,-0.6895,-0.6888,-0.6882,-0.6876,-0.688,-0.6875,-0.6869,-0.6861,-0.6856,-0.6849,-0.6839,-0.683,-0.6827,-0.6818,-0.6811,-0.6812,-0.6808,-0.6808,-0.6807,-0.6829,-0.6832,-0.6808,-0.6808,-0.6808,-0.6808,-0.6808,-0.6808,-0.6882,-0.6871,-0.6871,-0.6858,-0.6856,-0.6846,-0.6843,-0.6838,-0.6835,-0.6823,-0.6816,-0.6814,-0.681,-0.6801,-0.6792,-0.6791,-0.6787,-0.6783,-0.6782,-0.6803,-0.6806,-0.6808,-0.6811,-0.6783,-0.6782,-0.6761,-0.676,-0.676]},{"header":{"parameterUnit":"m.s-1","parameterCategory":1,"la1":30.2991,"la2":30.254,"lo1":-89.0895,"lo2":-89.0444,"dy":0.0017,"dx":0.0017,"nx":28,"ny":28,"refTime":"2026-02-26T09:00:00:Z","depth":0,"parameterNumber":3,"parameterNumberName":"V-component_of_WINDS"},"data":[0,0,0,0,0,0,0,0,0,0,0,0,0,0,0,0,0,0,0,0,0,0,0,0,0,0,0,0,0,0,0,0,0,0,0,0,0,0,0,0,0,0,0,0,0,0,0,0,0,0,0,0,0,0,0,0,0,0,2.2837,2.2838,0,2.2921,2.2922,2.2923,2.295,2.2949,2.2949,2.2949,2.3036,2.3038,2.3041,0,0,0,0,0,0,0,0,0,0,0,0,0,2.2701,2.2704,2.2837,2.2838,2.2839,2.2921,2.2922,2.2923,2.295,2.2949,2.2949,2.2948,2.3035,2.3038,2.3041,0,0,0,0,0,0,0,0,0,0,0,0,0,2.277,2.2705,2.2837,2.2862,2.2866,2.2921,2.2922,2.2924,2.295,2.2949,2.2949,2.2948,2.3034,2.3038,2.3042,2.3078,0,0,2.3054,2.3056,0,0,0,0,0,0,0,0,2.2766,2.2775,2.2858,2.2861,2.2864,2.2924,2.2906,2.2975,2.295,2.2918,2.2949,2.2948,2.2999,2.3006,2.3023,2.3082,2.3086,2.3054,2.3057,2.3058,2.3059,0,0,0,0,0,0,0,2.2762,2.2772,2.2871,2.2859,2.2863,2.287,2.2879,2.2919,2.2961,2.2921,2.2923,2.2932,2.3001,2.3019,2.3025,2.3087,2.3054,2.3058,2.306,2.3062,2.3181,2.3182,0,0,0,0,0,0,2.2752,2.2768,2.2868,2.2873,2.2813,2.2873,2.2883,2.2906,2.296,2.2968,2.2933,2.2933,2.3012,2.3021,2.3028,2.3076,2.3058,2.3062,2.3064,2.318,2.3181,2.3182,0,0,0,0,0,0,2.2749,2.2761,2.2865,2.2821,2.2835,2.2876,2.2901,2.2908,2.2926,2.297,2.2977,2.2944,2.3012,2.3023,2.3066,2.3079,2.3064,2.3067,2.318,2.3181,2.3182,2.317,0,0,0,0,0,0,2.2745,2.276,2.2774,2.2821,2.2837,2.29,2.2902,2.291,2.2933,2.2934,2.2982,2.2989,2.3013,2.3059,2.307,2.3084,2.3071,2.3179,2.318,2.3181,2.3169,2.317,2.3171,0,0,0,0,0,2.274,2.2767,2.2774,2.2786,2.2855,2.2901,2.291,2.2936,2.2934,2.2948,2.2976,2.2988,2.3075,2.3064,2.3075,2.3091,2.3178,2.318,2.3181,2.3168,2.317,2.3171,0,0,0,0,0,0,2.2721,2.2774,2.2783,2.2825,2.2858,2.2905,2.2925,2.2936,2.2971,2.2971,2.3002,2.3013,2.3054,2.3077,2.3062,2.313,2.3127,2.3131,2.3114,2.3115,2.3116,2.311,2.3074,0,0,0,0,0,2.2721,2.2753,2.2798,2.2832,2.2848,2.2883,2.2904,2.2921,2.2957,2.2971,2.3002,2.3036,2.3072,2.3095,2.313,2.3172,2.3183,2.3189,2.319,2.319,2.3194,2.3219,2.3222,2.3188,2.3188,2.3188,0,0,2.2723,2.2756,2.2775,2.2829,2.2856,2.2889,2.2895,2.2929,2.2954,2.2976,2.3019,2.3043,2.3083,2.3126,2.3147,2.3147,2.3206,2.3193,2.3193,2.3196,2.3221,2.3225,2.3227,2.3189,2.3189,2.3189,0,0,2.2744,2.2771,2.2803,2.283,2.2871,2.2895,2.2902,2.2947,2.2964,2.3007,2.3024,2.3054,2.3115,2.3143,2.3165,2.3196,2.3208,2.3207,2.3213,2.3237,2.324,2.3242,2.3254,2.3258,2.321,2.321,2.321,0,2.2741,2.2791,2.2817,2.2851,2.2875,2.2895,2.2928,2.2953,2.3004,2.302,2.3019,2.3095,2.3124,2.3174,2.3182,2.3199,2.3209,2.3202,2.3237,2.324,2.3243,2.3255,2.3259,2.3209,2.3209,2.3209,2.3209,0,2.2786,2.282,2.2841,2.2889,2.2915,2.2947,2.2979,2.3002,2.3017,2.304,2.3084,2.3119,2.3162,2.3175,2.319,2.3228,2.3226,2.3231,2.3229,2.3245,2.3257,2.3262,2.3209,2.3209,2.3209,2.3209,0,0,2.2798,2.286,2.2867,2.2889,2.2936,2.2963,2.2997,2.3039,2.3058,2.3092,2.3122,2.3172,2.3177,2.3202,2.322,2.3241,2.3264,2.3243,2.3244,2.3247,2.331,2.3307,2.3312,2.3272,2.3273,2.3274,2.3307,0,2.2825,2.2886,2.291,2.296,2.2993,2.3013,2.3042,2.3074,2.3097,2.3128,2.3154,2.3189,2.3192,2.3207,2.3229,2.3257,2.3278,2.3255,2.3301,2.3303,2.3292,2.3318,2.3315,2.3344,2.3311,2.3312,2.3313,0,2.2866,2.29,2.2952,2.2996,2.301,2.3036,2.3076,2.3106,2.3143,2.3158,2.3186,2.3203,2.324,2.3235,2.3287,2.327,2.3291,2.3307,2.3309,2.3316,2.3309,2.3326,2.3354,2.3359,2.332,2.3319,2.3319,0,2.287,2.2929,2.2969,2.2987,2.3038,2.3056,2.3078,2.3115,2.3138,2.3173,2.3189,2.3228,2.3249,2.3279,2.3307,2.33,2.3356,2.3353,2.3371,2.337,2.3383,2.3382,2.3416,2.3394,2.3394,2.3394,2.3394,0,2.2899,2.2931,2.2971,2.2996,2.3032,2.306,2.3095,2.3119,2.3151,2.3181,2.32,2.3228,2.3262,2.3294,2.3315,2.3356,2.3365,2.3379,2.3385,2.3378,2.3377,2.3393,2.3392,2.3395,2.3395,2.3394,2.3394,0,2.2911,2.2939,2.2984,2.3028,2.304,2.3065,2.3103,2.3128,2.3151,2.3189,2.3199,2.3236,2.3275,2.3305,2.3356,2.337,2.3413,2.3419,2.3401,2.3404,2.342,2.3419,2.3467,2.3475,2.3446,2.3446,2.3447,0,2.2928,2.2953,2.3,2.3021,2.3043,2.3076,2.31,2.3128,2.3152,2.3196,2.3216,2.3256,2.329,2.3351,2.3383,2.3422,2.343,2.3444,2.3436,2.3429,2.3432,2.343,2.3433,2.3445,2.3445,2.3446,2.3446,0,2.2956,2.2969,2.3002,2.304,2.3068,2.3099,2.3131,2.3148,2.3181,2.3208,2.3247,2.3274,2.3325,2.3365,2.3408,2.3431,2.3445,2.3448,2.3454,2.3449,2.3438,2.3445,2.3405,2.3447,2.3447,2.3447,2.3447,2.3447,2.2972,2.2995,2.3032,2.3068,2.3095,2.3124,2.315,2.3176,2.321,2.3253,2.3268,2.3309,2.3346,2.3404,2.3428,2.3462,2.3462,2.3471,2.3474,2.3476,2.3476,2.3431,2.3469,2.3469,2.3469,2.3469,2.3469,0,2.3002,2.3026,2.3059,2.3103,2.3132,2.3141,2.3177,2.3201,2.3236,2.3269,2.3302,2.3348,2.3387,2.3421,2.3462,2.3482,2.349,2.3492,2.3492,2.3497,2.3472,2.3463,2.3486,2.3486,2.3486,2.3486,2.3486,2.3486,2.3021,2.3061,2.3078,2.3132,2.3156,2.3196,2.3216,2.3243,2.327,2.332,2.3352,2.3374,2.3408,2.3451,2.3488,2.3497,2.3512,2.3513,2.3524,2.3501,2.3499,2.3497,2.3489,2.3516,2.3516,2.3546,2.3547,2.3547]}]]